Location: Antioch Baptist Church
(32.6696°N, 85.7327°W)
Time: 11:18:35
(UTC+00:00)

Cosmos 1486 Rocket - Pass Details

Date: 14 July 2020
Orbit: 759 x 782 km, 74.1° (Epoch: 08 August)

Event Time Altitude Azimuth Distance (km) Brightness Sun altitude
Exits shadow 10:09:21 - 207° (SSW) 2,821 6.4 -7.5°
Reaches altitude 10° 10:10:40 10° 209° (SSW) 2,317 6.0 -7.3°
Maximum altitude 10:15:51 58° 289° (WNW) 899 4.2 -6.4°
Drops below altitude 10° 10:21:02 10° 8° (N) 2,315 7.1 -5.4°
Sets 10:23:27 0° 12° (NNE) 3,242 7.9 -5.0°
